Terminal Aerodrome Forecast
Issued by NWS Pueblo, CO

Home | Current Version | Previous Version | Text Only | Print | Product List | Glossary On
Versions: 1 2 3 4 5 6 7 8 9 10 11 12 13 14 15 16 17 18 19 20 21 22 23 24 25 26 27 28 29 30 31 32 33 34
000
FTUS45 KPUB 171138
TAFPUB
TAF
KPUB 171138Z 1712/1812 VRB06KT P6SM SCT120 SCT150
     FM171900 15009KT P6SM SCT120 BKN160
     FM180300 VRB05KT P6SM SCT120=

USA.gov is the U.S. government's official web portal to all federal, state and local government web resources and services.